Location: Abraham Lincoln Continuation High School
(33.9711°N, 117.3662°W)
Time: 14:20:08
(UTC+00:00)

SJ 16-02 - Pass Details

Date: 21 September 2020
Orbit: 606 x 616 km, 75.0° (Epoch: 29 October)

Event Time Altitude Azimuth Distance (km) Brightness Sun altitude
Rises 02:29:48 0° 238° (WSW) 2,853 5.6 -9.5°
Reaches altitude 10° 02:32:59 10° 263° (W) 1,953 5.3 -10.1°
Maximum altitude 02:35:21 14° 296° (WNW) 1,688 4.8 -10.6°
Drops below altitude 10° 02:37:44 10° 329° (NNW) 1,958 4.5 -11.1°
Sets 02:40:57 0° 355° (N) 2,866 5.0 -11.8°
